TimeCST,TemperatureF,Dew PointF,Humidity,Sea Level PressureIn,VisibilityMPH,Wind Direction,Wind SpeedMPH,Gust SpeedMPH,PrecipitationIn,Events,Conditions,WindDirDegrees,DateUTC
12:14 AM,10.4,5.0,79,30.20,10.0,NW,9.2,-,N/A,,Clear,320,2014-01-15 06:14:00
12:34 AM,8.6,3.2,79,30.20,10.0,NW,8.1,-,N/A,,Clear,320,2014-01-15 06:34:00
12:54 AM,8.6,1.4,73,30.19,10.0,NW,5.8,-,N/A,,Clear,320,2014-01-15 06:54:00
1:14 AM,6.8,1.4,79,30.19,10.0,West,5.8,-,N/A,,Clear,280,2014-01-15 07:14:00
1:34 AM,6.8,1.4,79,30.20,10.0,West,5.8,-,N/A,,Clear,280,2014-01-15 07:34:00
1:54 AM,5.0,-0.4,78,30.20,10.0,West,6.9,-,N/A,,Clear,280,2014-01-15 07:54:00
2:14 AM,3.2,-0.4,85,30.20,10.0,West,8.1,-,N/A,,Scattered Clouds,280,2014-01-15 08:14:00
2:34 AM,3.2,-0.4,85,30.20,10.0,West,5.8,-,N/A,,Mostly Cloudy,280,2014-01-15 08:34:00
2:54 AM,3.2,-0.4,85,30.19,10.0,West,5.8,-,N/A,,Scattered Clouds,280,2014-01-15 08:54:00
3:14 AM,3.2,-0.4,85,30.18,10.0,West,6.9,-,N/A,,Clear,280,2014-01-15 09:14:00
3:34 AM,3.2,-0.4,85,30.18,10.0,West,6.9,-,N/A,,Clear,270,2014-01-15 09:34:00
3:54 AM,3.2,-0.4,85,30.18,10.0,West,5.8,-,N/A,,Clear,270,2014-01-15 09:54:00
4:14 AM,3.2,-2.2,78,30.18,10.0,West,4.6,-,N/A,,Clear,270,2014-01-15 10:14:00
4:34 AM,3.2,-0.4,85,30.16,10.0,West,5.8,-,N/A,,Clear,270,2014-01-15 10:34:00
4:54 AM,3.2,-2.2,78,30.14,10.0,Calm,Calm,-,N/A,,Clear,0,2014-01-15 10:54:00
5:14 AM,1.4,-2.2,85,30.13,10.0,WSW,3.5,-,N/A,,Clear,250,2014-01-15 11:14:00
5:34 AM,1.4,-2.2,85,30.13,10.0,WSW,3.5,-,N/A,,Clear,250,2014-01-15 11:34:00
5:54 AM,1.4,-2.2,85,30.11,10.0,Calm,Calm,-,N/A,,Clear,0,2014-01-15 11:54:00
6:14 AM,1.4,-2.2,85,30.10,10.0,Calm,Calm,-,N/A,,Clear,0,2014-01-15 12:14:00
6:34 AM,1.4,-2.2,85,30.10,10.0,Calm,Calm,-,N/A,,Clear,0,2014-01-15 12:34:00
6:54 AM,-0.4,-2.2,92,30.10,10.0,South,4.6,-,N/A,,Clear,190,2014-01-15 12:54:00
7:14 AM,-0.4,-4.0,85,30.09,10.0,SSW,5.8,-,N/A,,Clear,200,2014-01-15 13:14:00
7:34 AM,1.4,-2.2,85,30.08,10.0,South,4.6,-,N/A,,Clear,170,2014-01-15 13:34:00
7:54 AM,1.4,-2.2,85,30.06,10.0,South,6.9,-,N/A,,Clear,180,2014-01-15 13:54:00
8:14 AM,3.2,-2.2,78,30.05,10.0,South,6.9,-,N/A,,Clear,180,2014-01-15 14:14:00
8:34 AM,3.2,-0.4,85,30.02,10.0,SSE,6.9,-,N/A,,Scattered Clouds,160,2014-01-15 14:34:00
8:54 AM,5.0,-0.4,78,30.00,10.0,SE,6.9,-,N/A,,Scattered Clouds,130,2014-01-15 14:54:00
9:14 AM,5.0,1.4,85,29.99,10.0,SE,8.1,-,N/A,,Scattered Clouds,140,2014-01-15 15:14:00
9:34 AM,8.6,3.2,79,29.97,10.0,SSE,6.9,-,N/A,,Scattered Clouds,160,2014-01-15 15:34:00
9:54 AM,8.6,3.2,79,29.96,10.0,SSE,8.1,-,N/A,,Clear,150,2014-01-15 15:54:00
10:14 AM,10.4,3.2,73,29.93,10.0,SSE,10.4,-,N/A,,Scattered Clouds,150,2014-01-15 16:14:00
10:34 AM,10.4,5.0,79,29.91,10.0,SSE,11.5,17.3,N/A,,Scattered Clouds,160,2014-01-15 16:34:00
10:54 AM,12.2,6.8,79,29.89,10.0,SSE,13.8,-,N/A,,Mostly Cloudy,160,2014-01-15 16:54:00
11:14 AM,12.2,6.8,79,29.88,10.0,SSE,12.7,19.6,N/A,,Mostly Cloudy,160,2014-01-15 17:14:00
11:34 AM,14.0,6.8,73,29.85,7.0,SSE,13.8,18.4,N/A,Snow,Light Snow,160,2014-01-15 17:34:00
11:54 AM,15.8,8.6,73,29.81,7.0,SSE,13.8,19.6,N/A,Snow,Light Snow,150,2014-01-15 17:54:00
12:14 PM,15.8,8.6,73,29.77,7.0,SSE,17.3,23.0,N/A,Snow,Light Snow,160,2014-01-15 18:14:00
12:34 PM,15.8,10.4,79,29.75,3.0,SSE,16.1,21.9,N/A,Snow,Light Snow,150,2014-01-15 18:34:00
12:54 PM,15.8,12.2,86,29.71,10.0,SSE,17.3,24.2,N/A,,Overcast,150,2014-01-15 18:54:00
1:14 PM,17.6,12.2,79,29.70,10.0,SSE,17.3,24.2,N/A,,Overcast,150,2014-01-15 19:14:00
1:34 PM,17.6,14.0,86,29.68,10.0,SSE,16.1,21.9,N/A,,Overcast,160,2014-01-15 19:34:00
1:54 PM,19.4,15.8,86,29.66,10.0,SSE,16.1,23.0,N/A,,Overcast,160,2014-01-15 19:54:00
2:14 PM,19.4,15.8,86,29.64,10.0,SSE,15.0,21.9,N/A,,Overcast,160,2014-01-15 20:14:00
2:34 PM,19.4,17.6,93,29.59,1.5,SSE,17.3,21.9,N/A,Snow,Light Snow,150,2014-01-15 20:34:00
2:54 PM,21.2,17.6,86,29.59,10.0,SSE,18.4,26.5,N/A,,Mostly Cloudy,160,2014-01-15 20:54:00
3:14 PM,23.0,19.4,86,29.59,10.0,SSE,17.3,-,N/A,,Clear,160,2014-01-15 21:14:00
3:34 PM,24.8,19.4,80,29.57,10.0,SSE,10.4,18.4,N/A,,Clear,160,2014-01-15 21:34:00
3:54 PM,24.8,21.2,86,29.54,10.0,South,13.8,19.6,N/A,,Clear,170,2014-01-15 21:54:00
4:14 PM,26.6,21.2,80,29.54,10.0,South,11.5,-,N/A,,Clear,170,2014-01-15 22:14:00
4:34 PM,28.4,23.0,80,29.53,10.0,South,13.8,-,N/A,,Clear,180,2014-01-15 22:34:00
4:54 PM,28.4,24.8,86,29.53,10.0,South,10.4,-,N/A,,Clear,180,2014-01-15 22:54:00
5:14 PM,30.2,24.8,80,29.50,10.0,South,10.4,-,N/A,,Clear,190,2014-01-15 23:14:00
5:34 PM,32.0,26.6,80,29.47,10.0,SSW,9.2,-,N/A,,Clear,200,2014-01-15 23:34:00
5:54 PM,32.0,26.6,80,29.46,10.0,SW,8.1,-,N/A,,Clear,220,2014-01-15 23:54:00
6:14 PM,37.4,30.2,75,29.45,10.0,WSW,18.4,23.0,N/A,,Clear,250,2014-01-16 00:14:00
6:34 PM,39.2,30.2,70,29.46,10.0,WSW,17.3,23.0,N/A,,Clear,250,2014-01-16 00:34:00
6:54 PM,41.0,32.0,70,29.46,10.0,West,19.6,27.6,N/A,,Clear,260,2014-01-16 00:54:00
7:14 PM,42.8,32.0,66,29.46,10.0,West,17.3,28.8,N/A,,Clear,270,2014-01-16 01:14:00
7:34 PM,42.8,32.0,66,29.45,10.0,West,20.7,28.8,N/A,,Clear,270,2014-01-16 01:34:00
7:54 PM,41.0,32.0,70,29.45,10.0,West,13.8,26.5,N/A,,Clear,260,2014-01-16 01:54:00
8:14 PM,41.0,32.0,70,29.44,10.0,West,17.3,24.2,N/A,,Clear,260,2014-01-16 02:14:00
8:34 PM,41.0,32.0,70,29.44,10.0,West,16.1,28.8,N/A,,Clear,270,2014-01-16 02:34:00
8:54 PM,42.8,30.2,61,29.43,10.0,West,25.3,34.5,N/A,,Clear,270,2014-01-16 02:54:00
9:14 PM,41.0,30.2,65,29.43,10.0,West,24.2,32.2,N/A,,Clear,270,2014-01-16 03:14:00
9:35 PM,41.0,30.2,65,29.43,10.0,West,23.0,31.1,N/A,,Clear,270,2014-01-16 03:35:00
9:54 PM,39.2,30.2,70,29.43,10.0,West,23.0,28.8,N/A,,Clear,270,2014-01-16 03:54:00
10:14 PM,39.2,30.2,70,29.43,10.0,West,21.9,27.6,N/A,,Clear,270,2014-01-16 04:14:00
10:34 PM,39.2,30.2,70,29.42,10.0,West,23.0,33.4,N/A,,Scattered Clouds,270,2014-01-16 04:34:00
10:54 PM,39.2,30.2,70,29.42,10.0,West,24.2,31.1,N/A,,Scattered Clouds,270,2014-01-16 04:54:00
11:14 PM,39.2,30.2,70,29.42,10.0,West,24.2,29.9,N/A,,Scattered Clouds,270,2014-01-16 05:14:00
11:34 PM,39.2,30.2,70,29.42,10.0,West,24.2,31.1,N/A,,Overcast,270,2014-01-16 05:34:00
11:54 PM,39.2,30.2,70,29.42,10.0,West,25.3,39.1,N/A,,Overcast,280,2014-01-16 05:54:00